Regional Weather Roundup
Issued by NWS State College, PA

Home | Current Version | Previous Version | Graphics & Text | Print | Product List | Glossary On
Versions: 1 2 3 4 5 6 7 8 9 10 11 12 13 14 15 16 17 18 19 20 21 22 23 24 25 26 27 28 29 30 31 32 33 34 35 36 37 38 39 40 41 42 43 44 45 46 47 48 49 50
437
ASUS41 KCTP 270303
RWRCTP

REGIONAL WEATHER ROUNDUP
NATIONAL WEATHER SERVICE STATE COLLEGE PA
1100 PM EDT SUN MAR 26 2017

Note: "fair" indicates few or no clouds below 12,000 feet with no
significant weather and/or obstructions to visibility.

* = STATION THAT DOES NOT REPORT PRECIPITATION /E.G. RAIN...SNOW...ETC/
    THUNDER OR FOG.

PAZ002>004-007>009-013>016-020>023-029>032-270400-
WESTERN PENNSYLVANIA

CITY           SKY/WX    TMP DP  RH WIND       PRES   REMARKS
ERIE           PTCLDY    52  46  80 S21G26    29.94F
MEADVILLE      CLOUDY    49 N/A N/A VRB7G18   29.98S
FRANKLIN*      CLOUDY    46  43  87 S14G22    30.01F
NEW CASTLE     CLOUDY    52  51  97 VRB6      29.99F
BEAVER COUNTY  NOT AVBL
BUTLER*        CLOUDY    52  48  87 SE9       30.01F
PITTSBURGH INT LGT RAIN  54  54 100 SE10      29.99F
PITTSBURGH     MOCLDY    52  49  89 SE8       30.01S FOG
INDIANA*       CLOUDY    48  46  93 S17G25    30.08F FOG
LATROBE        LGT RAIN  48  48 100 S5        30.05F
WASHINGTON CO* CLOUDY    54  52  94 SE7       30.03S
$$

PAZ004>006-010>012-017>019-024>028-033>037-041-042-045-046-049>053-270400-
CENTRAL PENNSYLVANIA

CITY           SKY/WX    TMP DP  RH WIND       PRES   REMARKS
BRADFORD       LGT RAIN  41  41 100 SE12G22   30.04F
DUBOIS         CLOUDY    43  40  89 SE15G23   30.05F
CLEARFIELD       N/A    N/A N/A N/A MISG      30.14F
JOHNSTOWN      LGT RAIN  42  42 100 SE5       30.11F
ALTOONA        LGT RAIN  45  43  93 S3        30.17F FOG
STATE COLLEGE  RAIN      41  40  95 S5        30.18F
WILLIAMSPORT   CLOUDY    41  38  89 E12       30.22F
SELINSGROVE    CLOUDY    41  38  89 E5        30.25F
FT INDIANTOWN  CLOUDY    39  39 100 E7        30.26F FOG
CAPITAL CITY   CLOUDY    44  40  85 E10       30.25F FOG
HARRISBURG     DRIZZLE   42  42 100 E10       30.25F FOG
YORK           CLOUDY    43  43 100 E8        30.23F FOG
$$

PAZ038>040-043-044-047-048-054-055-060>062-067>071-270400-
EASTERN PENNSYLVANIA

CITY           SKY/WX    TMP DP  RH WIND       PRES   REMARKS
SCRANTON       CLOUDY    39  35  86 CALM      30.24F
MOUNT POCONO   FOG       31  31 100 SE10      30.23F VSB 1/4
ALLENTOWN      CLOUDY    40  37  89 E8        30.30F FOG
QUAKERTOWN*    CLOUDY    37  37 100 E7        30.30F
READING        LGT RAIN  40  40 100 VRB7      30.27F
LANCASTER      LGT RAIN  42  42 100 E10       30.26F FOG
COATESVILLE    FOG       39  39 100 E12       30.27F VSB 1
POTTSTOWN      CLOUDY    39  38  96 E5        30.30F FOG
BLUE BELL      CLOUDY    37  37 100 E7        30.29F
DOYLESTOWN     CLOUDY    38  38 100 CALM      30.30S FOG
WILLOW GROVE   NOT AVBL
NORTH PHILA    CLOUDY    41  40  96 E10       30.32F FOG
PHILADELPHIA   CLOUDY    41  39  93 NE7       30.30F FOG
$$




USA.gov is the U.S. government's official web portal to all federal, state and local government web resources and services.